Вернуться в каталог

STARLINK-32473

АктивенСвязьVLEO
NORAD 62049·PAYLOAD·🇺🇸 United States

Запущен Nov 21, 2024 с Cape Canaveral Space Force Station

Loading…

Ближайшие Пролёты (ближайшие 24 часа)

TLE

СвежийSource: CelesTrak SupGP

Эпоха: Sep 15, 2026, 02:52 UTC

1 62049C 24216T   26258.11993056 -.00015510  00000+0 -56193-3 0  2581
2 62049  42.9998 266.5870 0001288 263.6108 172.7903 15.27577763    13

Отслеживайте STARLINK-32473 в реальном времени с AllMySat

Download on the App Store